Weather History for Mt. Clemens, MI

Change the Weather History Date:

Thursday, February 14, 2013

  Actual Average Record
Temperature  
Mean Temperature 30 °F -  
Max Temperature 37 °F 31 °F 52 °F (1954)
Min Temperature 24 °F 16 °F -3 °F (1970)
Degree Days  
Heating Degree Days 34    
Moisture  
Dew Point 33 °F    
Average Humidity 92    
Maximum Humidity 100    
Minimum Humidity 70    
Precipitation  
Precipitation 0.04 in - - ()
Sea Level Pressure  
Sea Level Pressure 29.72 in    
Wind  
Wind Speed 11 mph (SSW)    
Max Wind Speed 20 mph    
Max Gust Speed 31 mph    
Visibility 4 miles    
Events Rain    
Averages and records for this station are not official NWS values.
T = Trace of Precipitation, MM = Missing Value Source: NWS Daily Summary

Daily Weather History Graph

Daily Weather History Graph

Search for Another Location

Airport:

Trip Planner

Search our weather history database for the weather conditions in past years. The results will help you decide how hot, cold, wet, or windy it might be!

Date:

Astronomy

Feb. 14, 2013 Rise Set
Actual Time 7:29 AM EST 6:02 PM EST
Civil Twilight 7:00 AM EST 6:31 PM EST
Nautical Twilight 6:27 AM EST 7:04 PM EST
Astronomical Twilight 5:54 AM EST 7:37 PM EST
Moon 9:23 AM EST (2/14) 11:12 PM EST (2/14)
Length of Visible Light 11h 31m
Length of Day
10h 33m
Waxing Crescent, 21% of the Moon is Illuminated
Feb 14
Waxing Crescent
Feb 17
First Quarter
Feb 25
Full
Mar 4
Last Quarter
Mar 11
New

Hourly Weather History & Observations

Time (EST) Temp. Windchill Dew Point Humidity Pressure Visibility Wind Dir Wind Speed Gust Speed Precip Events Conditions
4:55 AM 24.8 °F 17.9 °F 23.0 °F 93% 29.79 in 7.0 mi SSW 5.8 mph - N/A   Scattered Clouds
5:55 AM 26.6 °F 21.2 °F 24.8 °F 93% 29.79 in 7.0 mi SSW 4.6 mph - N/A   Mostly Cloudy
6:55 AM 28.4 °F 24.6 °F 26.6 °F 93% 29.79 in 7.0 mi South 3.5 mph - N/A   Mostly Cloudy
7:31 AM 28.4 °F 23.3 °F 26.6 °F 93% 29.74 in 3.0 mi South 4.6 mph - N/A   Mostly Cloudy
7:55 AM 28.4 °F 23.3 °F 28.4 °F 100% 29.79 in 3.0 mi South 4.6 mph - N/A   Overcast
8:55 AM 32.0 °F 27.5 °F 30.2 °F 93% 29.80 in 4.0 mi South 4.6 mph - N/A   Overcast
9:55 AM 35.6 °F 27.5 °F 32.0 °F 87% 29.80 in 3.0 mi SSW 11.5 mph - N/A   Overcast
10:55 AM 37.4 °F 29.8 °F 33.8 °F 87% 29.77 in 4.0 mi SSW 11.5 mph - N/A   Overcast
11:55 AM 37.4 °F 30.3 °F 33.8 °F 87% 29.77 in 3.0 mi South 10.4 mph - N/A   Overcast
12:06 PM 37.4 °F 28.2 °F 33.8 °F 87% 29.71 in 3.0 mi South 16.1 mph - N/A Rain Light Rain
12:42 PM 35.6 °F 26.2 °F 33.8 °F 93% 29.71 in 2.0 mi South 15.0 mph - N/A   Overcast
12:55 PM 35.6 °F 25.2 °F 33.8 °F 93% 29.74 in 1.8 mi South 18.4 mph - N/A   Overcast
1:05 PM 35.6 °F 25.9 °F 35.6 °F 100% 29.69 in 1.2 mi South 16.1 mph - N/A   Overcast
1:15 PM 35.6 °F 25.9 °F 35.6 °F 100% 29.68 in 1.5 mi South 16.1 mph - N/A   Overcast
1:32 PM 33.8 °F 22.8 °F 33.8 °F 100% 29.68 in 1.8 mi South 18.4 mph 24.2 mph N/A   Overcast
1:40 PM 35.6 °F 25.9 °F 33.8 °F 93% 29.68 in 1.8 mi South 16.1 mph 24.2 mph N/A   Overcast
1:46 PM 35.6 °F 25.5 °F 33.8 °F 93% 29.68 in 2.0 mi South 17.3 mph - N/A   Overcast
1:55 PM 35.6 °F 26.2 °F 35.6 °F 100% 29.73 in 2.0 mi South 15.0 mph - N/A   Overcast
2:05 PM 35.6 °F 25.9 °F 35.6 °F 100% 29.67 in 2.5 mi South 16.1 mph - N/A   Overcast
2:18 PM 35.6 °F 26.6 °F 35.6 °F 100% 29.67 in 2.8 mi South 13.8 mph - N/A Rain Light Rain
2:27 PM 35.6 °F 27.1 °F 35.6 °F 100% 29.67 in 3.0 mi South 12.7 mph - N/A Rain Light Rain
2:34 PM 35.6 °F 26.6 °F 35.6 °F 100% 29.67 in 2.5 mi South 13.8 mph - N/A Rain Rain
2:56 PM 35.6 °F 25.5 °F 35.6 °F 100% 29.71 in 2.5 mi South 17.3 mph 21.9 mph N/A Rain Light Rain
3:03 PM 35.6 °F 26.6 °F 35.6 °F 100% 29.66 in 2.5 mi South 13.8 mph 21.9 mph N/A   Overcast
3:55 PM 37.4 °F 30.3 °F 35.6 °F 93% 29.71 in 2.8 mi South 10.4 mph - N/A   Overcast
4:32 PM 37.4 °F 30.3 °F 35.6 °F 93% 29.67 in 3.0 mi South 10.4 mph - N/A   Overcast
4:55 PM 37.4 °F 29.8 °F 35.6 °F 93% 29.71 in 3.0 mi South 11.5 mph - N/A   Overcast
5:03 PM 37.4 °F 29.3 °F 35.6 °F 93% 29.67 in 2.5 mi South 12.7 mph - N/A Rain Light Rain
5:11 PM 37.4 °F 30.3 °F 35.6 °F 93% 29.67 in 3.0 mi SSW 10.4 mph - N/A   Overcast
5:45 PM 35.6 °F 28.6 °F 35.6 °F 100% 29.67 in 2.5 mi South 9.2 mph - N/A   Overcast
5:52 PM 37.4 °F 30.8 °F 35.6 °F 93% 29.67 in 2.5 mi South 9.2 mph - N/A   Overcast
5:55 PM 37.4 °F 30.8 °F 35.6 °F 93% 29.72 in 2.5 mi South 9.2 mph - N/A   Overcast
6:19 PM 35.6 °F 29.2 °F 35.6 °F 100% 29.67 in 2.5 mi South 8.1 mph - N/A Rain Light Rain
6:28 PM 37.4 °F 29.3 °F 35.6 °F 93% 29.68 in 2.0 mi SW 12.7 mph - N/A Rain Rain
6:40 PM 37.4 °F 30.3 °F 35.6 °F 93% 29.69 in 10.0 mi WSW 10.4 mph - N/A   Mostly Cloudy
6:55 PM 37.4 °F 28.9 °F 33.8 °F 87% 29.74 in 12.0 mi WSW 13.8 mph 24.2 mph N/A   Mostly Cloudy
7:55 PM 37.4 °F 28.5 °F 30.2 °F 75% 29.75 in 12.0 mi WSW 15.0 mph 20.7 mph N/A   Overcast
8:55 PM 37.4 °F 28.9 °F 30.2 °F 75% 29.75 in 12.0 mi WSW 13.8 mph 24.2 mph N/A   Overcast
9:30 PM 37.4 °F 27.2 °F 30.2 °F 75% 29.72 in 12.0 mi WSW 19.6 mph 27.6 mph N/A   Overcast
9:55 PM 37.4 °F 27.2 °F 28.4 °F 70% 29.78 in 12.0 mi WSW 19.6 mph 31.1 mph N/A   Overcast
10:55 PM 35.6 °F 24.8 °F 28.4 °F 75% 29.79 in 12.0 mi West 19.6 mph 28.8 mph N/A   Overcast